Find Starlink 31545

NORAD ID: 59400 Int'l Des: 2024-064 Owner: SPXS Country: US Constellation: starlink operational
LEOCIRCULAR

当前视图

正在加载3D地球...

About Starlink 31545

Starlink 31545 (NORAD 59400) is a starlink constellation satellite (v2 mini) launched Apr 5, 2024 by SPXS of US. It operates in LEO, CIRCULAR orbit with a mass of 730.00 kg.

关于 Starlink 31545

正在加载描述...

即将过境

Passes for default location (London). Set your location on the main map for personalized predictions.

高度历史

Loading altitude history...

两行轨道根数

1 59400U 24064C 26173.34262390 .00002905 00000-0 11497-3 0 9993
2 59400 43.0001 184.9289 0001495 285.8849 74.1837 15.27602539125235
Epoch: Jun 22, 2026 • Age: 25 hours

当前状态

高度 488.3 km
速度 7.62 km/s
星下点 -25.30°S, 99.79°E
发射日期 Apr 5, 2024
运行时间 2.2 years
类型 internet

技术详情

分类 Payload
质量 730.00 kg
干质量 700.00 kg
总质量 730.00 kg
长度 0.30 m
直径 4.10 m
跨度 29.00 m
形状 Box + pan
制造商 SPXS
平台类型 Starlink V2M
阶段状态 In Orbit
所有者/国家 SPXS/US

Most Searched